This demonstration page uses our WeatherBlox Daily Observations layout. Learn more.

Left ArrowRight Arrow

Hourly Observations for March 12, 2015

Temp ( °F °C ) Dew Point ( °F °C ) Humidity (%) Winds ( mph kmh ) Pressure ( in mb ) Visibility ( mi km ) Precip ( " mm )
12:51 am 00:51 Clear 59 15 24 -4.4 26 26 S 6 9 30.01 1016 10 16 0.00 0.00
1:51 am 01:51 Clear 59 15 25 -3.9 27 27 E 9 15 29.99 1016 10 16 0.00 0.00
2:51 am 02:51 Clear 59 15 25 -3.9 27 27 E 8 13 29.97 1015 10 16 0.00 0.00
3:51 am 03:51 Clear 62 16.7 23 -5 22 22 E 10 17 29.95 1014 10 16 0.00 0.00
4:51 am 04:51 Clear 61 16.1 24 -4.4 24 24 E 9 15 29.96 1015 10 16 0.00 0.00
5:51 am 05:51 Clear 62 16.7 25 -3.9 24 24 E 8 13 29.98 1015 10 16 0.00 0.00
6:51 am 06:51 Sunny 57 13.9 27 -2.8 32 32 SE 6 9 30.01 1016 10 16 0.00 0.00
7:51 am 07:51 Mostly Cloudy 59 15 26 -3.3 28 28 E 9 15 30.04 1017 10 16 0.00 0.00
8:51 am 08:51 Sunny 62 16.7 27 -2.8 26 26 ESE 10 17 30.04 1017 10 16 0.00 0.00
9:51 am 09:51 Sunny 66 18.9 28 -2.2 24 24 SSE 9 15 30.03 1017 10 16 0.00 0.00
10:51 am 10:51 Sunny 68 20 29 -1.7 23 23 SE 12 19 30.01 1016 10 16 0.00 0.00
11:51 am 11:51 Sunny 72 22.2 30 -1.1 21 21 SE 10 17 29.98 1015 10 16 0.00 0.00
12:51 pm 12:51 Sunny 74 23.3 30 -1.1 20 20 SE 12 19 29.93 1014 10 16 0.00 0.00
1:51 pm 13:51 Sunny 74 23.3 27 -2.8 17 17 SSE 15 24 29.90 1013 10 16 0.00 0.00
2:51 pm 14:51 Mostly Sunny 73 22.8 27 -2.8 18 18 S 12 19 29.89 1012 10 16 0.00 0.00
3:51 pm 15:51 Sunny 73 22.8 26 -3.3 17 17 WSW 7 11 29.87 1012 10 16 0.00 0.00
4:51 pm 16:51 Mostly Cloudy 70 21.1 30 -1.1 23 23 S 6 9 29.89 1012 10 16 0.00 0.00
5:51 pm 17:51 Cloudy 70 21.1 28 -2.2 21 21 SSW 7 11 29.89 1012 10 16 0.00 0.00
6:51 pm 18:51 Partly Cloudy 67 19.4 30 -1.1 25 25 SW 6 9 29.91 1013 10 16 0.00 0.00
7:51 pm 19:51 Mostly Cloudy 65 18.3 32 0 29 29 W 3 6 29.93 1014 10 16 0.00 0.00
8:51 pm 20:51 Cloudy 63 17.2 32 0 31 31 NNE 7 11 29.94 1014 10 16 0.00 0.00
9:51 pm 21:51 Mostly Cloudy 65 18.3 33 0.6 31 31 NE 12 19 29.94 1014 10 16 0.00 0.00
10:51 pm 22:51 Clear 63 17.2 33 0.6 33 33 NE 9 15 29.93 1014 10 16 0.00 0.00
11:51 pm 23:51 Clear 62 16.7 33 0.6 34 34 ESE 6 9 29.92 1013 10 16 0.00 0.00

Powered by AerisWeather